This is the latest recevied weather packets stored in our database for station/object DH8TOM-2. If no packets are shown the sender has not sent any weather packets the latest 1 day(s).
| Time | Temp. | Humidity | Pressure | Rain* | Wind** | Luminosity | Snow |
|---|---|---|---|---|---|---|---|
| 1777971713 | 20.56° C | 65% | 1006.3 hPa | 0 mm | 0.45 m/s, 330° | - | - |
| 1777971411 | 20.56° C | 65% | 1006.3 hPa | 0 mm | 0.45 m/s, 330° | - | - |
| 1777971110 | 20.56° C | 63% | 1006.3 hPa | 0 mm | 0.45 m/s, 161° | - | - |
| 1777970810 | 20.56° C | 63% | 1006.3 hPa | 0 mm | 0.45 m/s, 161° | - | - |
| 1777970516 | 20° C | 63% | 1006.4 hPa | 0 mm | 0.45 m/s, 149° | - | - |
| 1777970207 | 20° C | 63% | 1006.4 hPa | 0 mm | 0.45 m/s, 149° | - | - |
| 1777969906 | 20° C | 65% | 1006.5 hPa | 0 mm | 0.45 m/s, 90° | - | - |
| 1777969604 | 20° C | 65% | 1006.5 hPa | 0 mm | 0.45 m/s, 90° | - | - |
| 1777969304 | 19.44° C | 68% | 1006.5 hPa | 0 mm | 0.45 m/s, 127° | - | - |
| 1777969002 | 19.44° C | 68% | 1006.5 hPa | 0 mm | 0.45 m/s, 127° | - | - |
| 1777968704 | 18.33° C | 70% | 1006.7 hPa | 0 mm | 0.45 m/s, 122° | - | - |
| 1777968400 | 18.33° C | 70% | 1006.7 hPa | 0 mm | 0.45 m/s, 122° | - | - |
| 1777968101 | 17.78° C | 71% | 1006.8 hPa | 0 mm | 0.45 m/s, 180° | - | - |
| 1777967800 | 17.78° C | 71% | 1006.8 hPa | 0 mm | 0.45 m/s, 180° | - | - |
| 1777967498 | 17.78° C | 74% | 1006.9 hPa | 0 mm | 0.45 m/s, 152° | - | - |
| 1777967197 | 17.78° C | 74% | 1006.9 hPa | 0 mm | 0.45 m/s, 152° | - | - |
| 1777966897 | 16.67° C | 76% | 1007 hPa | 0 mm | 0.45 m/s, 127° | - | - |
| 1777966595 | 16.67° C | 76% | 1007 hPa | 0 mm | 0.45 m/s, 127° | - | - |
| 1777966294 | 16.11° C | 76% | 1007 hPa | 0 mm | 0.45 m/s, 135° | - | - |
| 1777965993 | 16.11° C | 76% | 1007 hPa | 0 mm | 0.45 m/s, 135° | - | - |
| 1777965692 | 15.56° C | 76% | 1007 hPa | 0 mm | 0.45 m/s, 307° | - | - |
| 1777965391 | 15.56° C | 76% | 1007 hPa | 0 mm | 0.45 m/s, 307° | - | - |
| 1777965090 | 15.56° C | 77% | 1007 hPa | 0 mm | 0.45 m/s, 319° | - | - |
| 1777964789 | 15.56° C | 77% | 1007 hPa | 0 mm | 0.45 m/s, 319° | - | - |
| 1777964488 | 15° C | 78% | 1007 hPa | 0 mm | 0.45 m/s, 26° | - | - |
* Rain latest hour (hover to see other rain measurements)
** Current wind speed in m/s (hover to see current wind gust speed)